Regional Weather Roundup
Issued by NWS

Home | Current Version | Previous Version | Text Only | Print | Product List | Glossary Off
Versions: 1 2 3 4 5 6 7 8 9 10 11 12 13 14 15 16 17 18 19 20 21 22 23 24 25 26 27 28 29 30 31 32 33 34 35 36 37 38 39 40 41 42 43 44 45 46 47 48 49 50

000
ASUS43 KMPX 232110
RWRMN
WEATHER ROUNDUP FOR MINNESOTA
NATIONAL WEATHER SERVICE TWIN CITIES/CHANHASSEN MN
400 PM CDT WED AUG 23 2017


NOTE: "FAIR" INDICATES FEW OR NO CLOUDS BELOW 12,000 FEET WITH NO
SIGNIFICANT WEATHER AND/OR OBSTRUCTIONS TO VISIBILITY. N/A MEANS
CURRENT SKY AND/OR WEATHER CONDITIONS ARE NOT AVAILABLE.

MNZ060>063-068>070-232200-
   Twin Cities Metro

CITY           SKY/WX    TMP DP  RH WIND       PRES   REMARKS
TWIN CITIES    MOSUNNY   76  50  40 NW8       30.05F
ST PAUL        MOSUNNY   74  52  46 NW9       30.05F
CRYSTAL        MOSUNNY   76  49  38 NW8       30.04F
BLAINE         MOSUNNY   75  50  41 N10G17    30.05F
LAKEVILLE      SUNNY     73  52  46 NW8       30.06F
EDEN PRAIRIE   SUNNY     76  50  40 NW9       30.05F
SOUTH ST PAUL  MOSUNNY   73  49  42 NW9       30.05F
LAKE ELMO      FAIR      72  52  49 NW7       30.06F
$$
MNZ001>005-007-008-013>017-022>024-027-028-232200-
   Northwest Minnesota

CITY           SKY/WX    TMP DP  RH WIND       PRES   REMARKS
BEMIDJI        CLOUDY    66  46  48 VRB6      30.07S
HALLOCK        CLOUDY    63  54  72 E10       30.07S
ROSEAU         LGT RAIN  57  54  88 NE8       30.10F
WARROAD        LGT RAIN  57  52  82 N5        30.11F
THIEF RVR FALL CLOUDY    67  49  52 E12       30.06F
CROOKSTON      CLOUDY    73  52  46 E12       30.02F
FOSSTON        CLOUDY    68  54  60 NE5       30.06F HAZE
DETROIT LAKES  SUNNY     73  46  38 S5        30.06F
MOORHEAD       SUNNY     75  48  38 SE5       30.02F
PARK RAPIDS    MOSUNNY   75  49  39 NW7       30.05F
MAHNOMEN       FAIR      71  48  44 CALM      30.04F
$$
MNZ006-009>011-018-025>026-232200-
   North Central Minnesota

CITY           SKY/WX    TMP DP  RH WIND       PRES   REMARKS
BAUDETTE       LGT RAIN  58  53  84 NW3       30.10S
FLAG ISLAND    PTSUNNY   57  50  77 CALM      30.07F
INTL FALLS     PTSUNNY   63  46  54 CALM      30.08S
WASKISH        LGT RAIN  61  54  77 W5        30.10R
BIG FORK       SUNNY     66  46  48 CALM      30.07S
LONGVILLE      SUNNY     70  48  46 NW3       30.06F
GRAND RAPIDS   PTSUNNY   64  49  57 CALM      30.08F
CRANE LAKE     SUNNY     61  45  55 NW5       30.09S
ORR            SUNNY     64  45  48 W5        30.05F
COOK           MOSUNNY   64  46  52 CALM      30.07F
WALKER         MOCLDY    68  51  53 E3        30.06F
$$
MNZ012-019>021-037-232200-
   Northeast Minnesota

CITY           SKY/WX    TMP DP  RH WIND       PRES   REMARKS
DULUTH         PTSUNNY   65  49  56 NE6       30.06F
ELY            SUNNY     63  39  42 NW5       30.07S
HIBBING        SUNNY     64  45  49 N9        30.06F
EVELETH        SUNNY     64  34  33 NW7       30.08S
DULUTH HARBOR  SUNNY     66  52  59 E3        30.06F
TWO HARBORS    CLOUDY    70  55  60 S3        30.04F
SILVER BAY     MOSUNNY   63  52  67 SE8       30.04F
GRAND MARAIS     N/A     69  36  29 MISG      30.03F
G MARAIS ARPRT SUNNY     61  30  31 N13       30.06F
$$
MNZ029>031-032-039>041-046>048-054>057-064-232200-
   West Central Minnesota

CITY           SKY/WX    TMP DP  RH WIND       PRES   REMARKS
FERGUS FALLS   SUNNY     73  48  40 SE3       30.02F
WHEATON        SUNNY     75  46  35 S8        30.03F
MORRIS         SUNNY     77  48  36 S3        30.03F
ALEXANDRIA     SUNNY     73  45  36 CALM      30.07F
ELBOW LAKE     FAIR      73  53  48 SE3       30.04F HAZE
WADENA         SUNNY     73  48  40 CALM      30.05F
GLENWOOD       SUNNY     75  46  35 S6        30.06F
APPLETON       SUNNY     77  45  31 SE5       30.03F
BENSON         SUNNY     77  46  33 W3        30.06F
ORTONVILLE     SUNNY     77  50  38 MISG      30.03F
MADISON        SUNNY     79  55  44 SE6       30.04F
WILLMAR        FAIR      75  50  41 W3        30.07F
$$
MNZ033>034-036-042>043-049>051-058-059-232200-
   Central Minnesota

CITY           SKY/WX    TMP DP  RH WIND       PRES   REMARKS
ST CLOUD       SUNNY     75  50  41 N7        30.05F
SAUK CENTRE    FAIR      73  50  43 W3        30.06F
PAYNESVILLE    MOSUNNY   75  50  42 CALM      30.06F
AITKIN         SUNNY     70  48  46 NW6       30.05F
PINE RIVER     MOSUNNY   66  50  55 N3        30.09F
BRAINERD       SUNNY     71  51  49 N5        30.06F
STAPLES        SUNNY     73  46  38 N6        30.05F
LONG PRAIRIE   FAIR      72  50  46 W3        30.06F
LITTLE FALLS   MOSUNNY   72  46  40 W6        30.06F
LITCHFIELD     SUNNY     75  48  38 CALM      30.06F
BUFFALO        SUNNY     74  47  38 W3        30.06F
MAPLE LAKE     SUNNY     75  53  46 W5        30.06F
HUTCHINSON     CLOUDY    75  51  43 W3        30.07F
$$
MNZ037-044-045-052-053-232200-
   East Central Minnesota

CITY           SKY/WX    TMP DP  RH WIND       PRES   REMARKS
PRINCETON      MOSUNNY   75  52  43 NW8       30.06S
MORA           SUNNY     70  48  46 NW9       30.08F
CAMBRIDGE      MOSUNNY   73  55  53 N8        30.06F
RUSH CITY      SUNNY     70  50  49 N5        30.06F
MOOSE LAKE     MOSUNNY   64  46  52 NW5       30.04F
HINCKLEY       MOCLDY    70  52  52 N7        30.06F
CLOQUET        PTSUNNY   66  45  45 N8        30.06F
MCGREGOR       MOSUNNY   70  46  43 W5        30.06F
$$
MNZ071>073-080-081-089-090-097-098-232200-
   Southwest Minnesota

CITY           SKY/WX    TMP DP  RH WIND       PRES   REMARKS
MONTEVIDEO     SUNNY     81  52  36 CALM      30.05F
GRANITE FALLS  SUNNY     77  51  40 SE3       30.07F
CANBY          MOSUNNY   77  51  40 CALM      30.05F
MARSHALL       MOSUNNY   76  50  40 S8        30.05F
REDWOOD FALLS  SUNNY     75  46  35 SE3       30.05F
OLIVIA         SUNNY     73  46  38 CALM      30.06F
PIPESTONE      SUNNY     75  55  50 S6        30.06F
WINDOM         SUNNY     75  50  41 CALM      30.07F
WORTHINGTON    SUNNY     75  54  47 VRB5      30.08F
JACKSON        PTSUNNY   72  50  46 CALM      30.09F
TRACY          MOSUNNY   75  54  46 SE3       30.07F
SLAYTON        MOSUNNY   74  45  35 SE3       30.09F
$$
MNZ065>067-074>077-082>085-091>093-232200-
   South Central Minnesota

CITY           SKY/WX    TMP DP  RH WIND       PRES   REMARKS
MANKATO        SUNNY     74  49  41 NW9       30.07F
NEW ULM        SUNNY     73  46  38 SW3       30.07F
ST JAMES       MOSUNNY   75  48  38 CALM      30.08F
FAIRMONT       SUNNY     75  49  39 CALM      30.08F
GLENCOE        SUNNY     75  56  50 W6        30.06F
FARIBAULT      MOSUNNY   73  52  46 W8        30.07F
OWATONNA       SUNNY     73  54  49 W10       30.07F
WASECA         SUNNY     72  50  46 NW6       30.09F
ALBERT LEA     SUNNY     77  52  41 NW5       30.08F
$$
MNZ078>079-086>088-094>096-232200-
   Southeast Minnesota

CITY           SKY/WX    TMP DP  RH WIND       PRES   REMARKS
ROCHESTER      MOSUNNY   72  53  51 NW10      30.07F
RED WING       MOSUNNY   73  48  40 N5        30.04F
STANTON        MOSUNNY   75  50  42 NW13      30.05F
DODGE CENTER   MOSUNNY   72  50  46 NW9       30.08F
WINONA         SUNNY     73  52  46 NW7       30.05F
AUSTIN           N/A     73  48  40 NW7       30.07F
PRESTON        MOSUNNY   72  49  44 NW14      30.07F
$$
ABBREVIATIONS USED IN REMARKS
   TC - TEMPERATURES IN CELSIUS
  WCI - WIND CHILL INDEX
   HX - HEAT INDEX
  VSB - VISIBILITY
$$




USA.gov is the U.S. government's official web portal to all federal, state and local government web resources and services.